Regional Weather Roundup
Issued by NWS

Home | Current Version | Previous Version | Graphics & Text | Print | Product List | Glossary On
Versions: 1 2 3 4 5 6 7 8 9 10 11 12 13 14 15 16 17 18 19 20 21 22 23 24 25 26 27 28 29 30 31 32 33 34 35 36 37 38 39 40 41 42 43 44 45 46 47 48 49 50
899
ASUS44 KLIX 231505
RWRLA
LOUISIANA WEATHER ROUNDUP
NATIONAL WEATHER SERVICE NEW ORLEANS LA
1000 AM CDT TUE SEP 23 2014

NOTE: "FAIR" INDICATES FEW OR NO CLOUDS BELOW 12,000 FEET WITH NO
      SIGNIFICANT WEATHER AND/OR OBSTRUCTIONS TO VISIBILITY.
      SKY/WX - SKY CONDITION AND SIGNIFICANT WEATHER.
      TMP - AIR TEMPERATURE.    DP   - DEWPOINT TEMPERATURE.
      RH  - RELATIVE HUMIDITY.  PRES - PRESSURE.
      HX  - HEAT INDEX.         WCI  - WIND CHILL INDEX.

*  THESE STATIONS ARE NOT NWS OR FAA STATIONS AND ARE NOT UNDER
   NWS QUALITY CONTROL.

LAZ040-048-061>063-065-066-069-231600-
SOUTHEAST LOUISIANA

CITY           SKY/WX    TMP DP  RH WIND       PRES   REMARKS
N.O. AUDUBON     N/A     79  58  49 MISG        N/A
N.O. INTL ARPT MOSUNNY   76  59  55 NE10      30.10S
N.O. LAKEFRONT SUNNY     74  58  57 NE13      30.11R
N.O. DOWNTOWN* FAIR      73  54  49 NE5       30.11S
SLIDELL        SUNNY     73  56  54 NE7       30.11S
BATON ROUGE    SUNNY     73  56  54 NE8       30.13S
BOOTHVILLE     SUNNY     81  62  52 NE12G17   30.08R
BELLE CHASSE   MOSUNNY   77  60  55 NE13      30.10R
BOGALUSA*      FAIR      72  55  55 NE6       30.15R
GALLIANO*      NOT AVBL
NEW ROADS*     FAIR      73  54  52 E8        30.14R
GONZALES*      FAIR      72  60  64 NE7       30.12S
HAMMOND*       SUNNY     73  54  49 NE5       30.14S
HOUMA*         SUNNY     75  39  27 NE12      30.10R
PORT FOURCHON* SUNNY     79  66  65 NE17      30.11R

$$

LAZ041-044-053-054-231600-
SOUTHWEST LOUISIANA

CITY           SKY/WX    TMP DP  RH WIND       PRES   REMARKS
LAKE CHARLES   SUNNY     73  57  57 NE12      30.12R
LAFAYETTE      SUNNY     72  57  59 NE9       30.12S
PATTERSON      SUNNY     75  61  60 NE10      30.13R
SALT POINT       N/A     77  62  59 VRB7      30.09R
NEW IBERIA     SUNNY     74  58  57 NE9       30.12S
CHENAULT AIRPK NOT AVBL

$$

LAZ027-028-231600-
CENTRAL LOUISIANA

CITY           SKY/WX    TMP DP  RH WIND       PRES   REMARKS
FORT POLK      NOT AVBL
ALEXANDRIA INT SUNNY     71  55  56 NE7       30.14S
ALEXANDRIA     SUNNY     70  56  61 NE7       30.16S

$$

LAZ001-002-231600-
NORTHWEST LOUISIANA

CITY           SKY/WX    TMP DP  RH WIND       PRES   REMARKS
SHREVEPORT     PTSUNNY   70  53  54 E7        30.20R
BARKSDALE AFB  SUNNY     69  52  54 E8        30.21R
DTN SHREVEPORT SUNNY     68  54  60 VRB3      30.21R

$$

LAZ014-016-231600-
NORTHEAST LOUISIANA

CITY           SKY/WX    TMP DP  RH WIND       PRES   REMARKS
MONROE         SUNNY     69  54  58 E8        30.20S
TALLULAH       SUNNY     70  54  56 NE5       30.18S

$$




USA.gov is the U.S. government's official web portal to all federal, state and local government web resources and services.